[[{"header":{"parameterUnit":"m.s-1","parameterCategory":1,"la1":30.2991,"la2":30.254,"lo1":-89.0895,"lo2":-89.0444,"dy":0.0017,"dx":0.0017,"nx":28,"ny":28,"refTime":"2026-01-05T09:00:00:Z","depth":0,"parameterNumber":2,"parameterNumberName":"U-component_of_WINDS"},"data":[0,0,0,0,0,0,0,0,0,0,0,0,0,0,0,0,0,0,0,0,0,0,0,0,0,0,0,0,0,0,0,0,0,0,0,0,0,0,0,0,0,0,0,0,0,0,0,0,0,0,0,0,0,0,0,0,0,0,-1.7534,-1.7535,0,-1.761,-1.7611,-1.7611,-1.7637,-1.7637,-1.7637,-1.7636,-1.7721,-1.7724,-1.7726,0,0,0,0,0,0,0,0,0,0,0,0,0,-1.7419,-1.7421,-1.7534,-1.7535,-1.7536,-1.761,-1.7611,-1.7612,-1.7637,-1.7637,-1.7637,-1.7636,-1.772,-1.7723,-1.7726,0,0,0,0,0,0,0,0,0,0,0,0,0,-1.7479,-1.7421,-1.7534,-1.7558,-1.756,-1.7609,-1.7611,-1.7612,-1.7637,-1.7637,-1.7636,-1.7636,-1.7719,-1.7723,-1.7727,-1.776,0,0,-1.7739,-1.774,0,0,0,0,0,0,0,0,-1.7476,-1.7483,-1.7553,-1.7556,-1.7559,-1.7613,-1.7601,-1.7662,-1.7637,-1.7608,-1.7636,-1.7636,-1.7686,-1.7693,-1.7708,-1.7764,-1.7768,-1.7739,-1.7741,-1.7743,-1.7744,0,0,0,0,0,0,0,-1.7471,-1.748,-1.7564,-1.7554,-1.7558,-1.7566,-1.7574,-1.7613,-1.7649,-1.7611,-1.7613,-1.7621,-1.7688,-1.7704,-1.771,-1.7769,-1.7739,-1.7742,-1.7745,-1.7746,-1.7856,-1.7856,0,0,0,0,0,0,-1.7462,-1.7477,-1.7562,-1.7567,-1.7515,-1.7569,-1.7578,-1.7597,-1.7649,-1.7656,-1.7621,-1.7622,-1.7698,-1.7706,-1.7713,-1.7755,-1.7743,-1.7746,-1.7749,-1.7855,-1.7856,-1.7857,0,0,0,0,0,0,-1.746,-1.747,-1.7559,-1.7522,-1.7534,-1.7571,-1.7592,-1.7598,-1.7615,-1.7657,-1.7664,-1.7631,-1.7698,-1.7708,-1.7748,-1.7758,-1.7748,-1.7752,-1.7855,-1.7855,-1.7856,-1.7839,0,0,0,0,0,0,-1.7456,-1.7469,-1.748,-1.7522,-1.7536,-1.759,-1.7593,-1.76,-1.762,-1.7622,-1.7668,-1.7675,-1.7698,-1.7742,-1.7751,-1.7763,-1.7755,-1.7854,-1.7855,-1.7856,-1.7839,-1.7839,-1.7839,0,0,0,0,0,-1.7452,-1.7474,-1.748,-1.7491,-1.7551,-1.759,-1.7598,-1.7622,-1.7621,-1.7634,-1.7661,-1.7674,-1.7756,-1.7746,-1.7757,-1.777,-1.7853,-1.7855,-1.7856,-1.7838,-1.7839,-1.7839,0,0,0,0,0,0,-1.7435,-1.748,-1.7488,-1.7523,-1.7552,-1.7594,-1.7611,-1.7622,-1.7654,-1.7655,-1.7686,-1.7696,-1.7733,-1.7756,-1.7744,-1.7805,-1.7805,-1.7809,-1.7788,-1.7789,-1.7789,-1.7783,-1.7758,0,0,0,0,0,-1.7435,-1.7461,-1.75,-1.7528,-1.7542,-1.7574,-1.7592,-1.7608,-1.764,-1.7653,-1.7683,-1.7716,-1.7749,-1.7771,-1.7804,-1.7842,-1.7853,-1.7857,-1.7858,-1.7858,-1.786,-1.7882,-1.7884,-1.7861,-1.7861,-1.7861,0,0,-1.7436,-1.7464,-1.7479,-1.7525,-1.7549,-1.7577,-1.7584,-1.7614,-1.7635,-1.7659,-1.7697,-1.772,-1.7759,-1.7798,-1.7817,-1.7818,-1.7869,-1.7859,-1.7859,-1.7862,-1.7884,-1.7886,-1.7888,-1.7862,-1.7862,-1.7862,0,0,-1.7451,-1.7475,-1.75,-1.7524,-1.7559,-1.7581,-1.7587,-1.7627,-1.7642,-1.768,-1.7698,-1.7726,-1.7782,-1.7809,-1.783,-1.7855,-1.7868,-1.7865,-1.7867,-1.7888,-1.789,-1.7892,-1.79,-1.7903,-1.7868,-1.7868,-1.7868,0,-1.7448,-1.7489,-1.7512,-1.754,-1.756,-1.758,-1.7606,-1.7629,-1.7675,-1.7689,-1.769,-1.776,-1.7788,-1.7833,-1.7839,-1.7856,-1.7864,-1.786,-1.7887,-1.7889,-1.7891,-1.79,-1.7903,-1.7867,-1.7867,-1.7867,-1.7868,0,-1.7483,-1.7511,-1.7528,-1.7568,-1.759,-1.7618,-1.7646,-1.7667,-1.7681,-1.7702,-1.7741,-1.7775,-1.7815,-1.7827,-1.7843,-1.7875,-1.7874,-1.7881,-1.7882,-1.7892,-1.7901,-1.7905,-1.7866,-1.7867,-1.7867,-1.7867,0,0,-1.749,-1.7542,-1.7547,-1.7565,-1.7606,-1.7629,-1.7658,-1.7694,-1.7711,-1.7742,-1.7767,-1.7814,-1.782,-1.7844,-1.7863,-1.7881,-1.7898,-1.7886,-1.7887,-1.7886,-1.7936,-1.793,-1.7933,-1.7907,-1.7908,-1.7909,-1.7932,0,-1.751,-1.7559,-1.758,-1.762,-1.7647,-1.7666,-1.7691,-1.772,-1.7741,-1.7768,-1.7793,-1.7825,-1.7831,-1.7845,-1.7864,-1.7892,-1.7908,-1.7891,-1.7933,-1.7934,-1.7921,-1.7937,-1.7932,-1.7952,-1.7936,-1.7936,-1.7937,0,-1.754,-1.7568,-1.7609,-1.7646,-1.7658,-1.768,-1.7714,-1.7739,-1.7773,-1.7788,-1.7813,-1.7831,-1.7864,-1.7863,-1.7909,-1.7896,-1.7915,-1.7932,-1.7933,-1.7938,-1.7935,-1.7942,-1.7959,-1.7962,-1.7942,-1.7942,-1.7941,0,-1.7539,-1.7588,-1.7618,-1.7634,-1.7678,-1.7692,-1.7712,-1.7745,-1.7765,-1.7796,-1.781,-1.7846,-1.7865,-1.7894,-1.7922,-1.7918,-1.7965,-1.7967,-1.7979,-1.7979,-1.7988,-1.7987,-1.8008,-1.8001,-1.8001,-1.8001,-1.8001,0,-1.7558,-1.7583,-1.7618,-1.7637,-1.7666,-1.7691,-1.772,-1.7741,-1.777,-1.7795,-1.7816,-1.7839,-1.7874,-1.7903,-1.7926,-1.7961,-1.797,-1.7984,-1.7989,-1.7981,-1.7979,-1.7993,-1.7993,-1.8002,-1.8002,-1.8002,-1.8001,0,-1.7562,-1.7587,-1.7621,-1.7659,-1.767,-1.7689,-1.7722,-1.7743,-1.7764,-1.7796,-1.7805,-1.784,-1.7875,-1.7905,-1.7952,-1.7967,-1.8003,-1.801,-1.799,-1.7993,-1.8004,-1.8002,-1.8034,-1.804,-1.803,-1.803,-1.803,0,-1.7572,-1.7591,-1.763,-1.7647,-1.7665,-1.7693,-1.7712,-1.7739,-1.7759,-1.7799,-1.7814,-1.785,-1.7879,-1.7935,-1.7966,-1.8002,-1.801,-1.8019,-1.8016,-1.8007,-1.801,-1.8008,-1.801,-1.8019,-1.8019,-1.8019,-1.8019,0,-1.7588,-1.7599,-1.7625,-1.7655,-1.7678,-1.7704,-1.7731,-1.7744,-1.7777,-1.7799,-1.7832,-1.7855,-1.7902,-1.7937,-1.7977,-1.8,-1.8015,-1.8019,-1.8024,-1.8016,-1.8003,-1.801,-1.799,-1.8019,-1.8019,-1.8019,-1.8019,-1.8019,-1.7595,-1.7612,-1.7641,-1.767,-1.7693,-1.7717,-1.7737,-1.7761,-1.7789,-1.7826,-1.7841,-1.7876,-1.7911,-1.7964,-1.7987,-1.8017,-1.8019,-1.8026,-1.8028,-1.8029,-1.8027,-1.7999,-1.8024,-1.8024,-1.8025,-1.8025,-1.8025,0,-1.761,-1.763,-1.7656,-1.7692,-1.7715,-1.7724,-1.7755,-1.7774,-1.7803,-1.7832,-1.786,-1.79,-1.7934,-1.7968,-1.8005,-1.8022,-1.803,-1.8031,-1.8029,-1.8035,-1.8023,-1.8015,-1.8023,-1.8023,-1.8023,-1.8023,-1.8023,-1.8023,-1.7621,-1.765,-1.7665,-1.7706,-1.7727,-1.7758,-1.7775,-1.7798,-1.7821,-1.7863,-1.789,-1.7911,-1.7943,-1.7982,-1.8015,-1.8024,-1.8037,-1.8035,-1.8047,-1.8036,-1.8035,-1.8035,-1.8027,-1.8038,-1.8038,-1.8056,-1.8056,-1.8056]},{"header":{"parameterUnit":"m.s-1","parameterCategory":1,"la1":30.2991,"la2":30.254,"lo1":-89.0895,"lo2":-89.0444,"dy":0.0017,"dx":0.0017,"nx":28,"ny":28,"refTime":"2026-01-05T09:00:00:Z","depth":0,"parameterNumber":3,"parameterNumberName":"V-component_of_WINDS"},"data":[0,0,0,0,0,0,0,0,0,0,0,0,0,0,0,0,0,0,0,0,0,0,0,0,0,0,0,0,0,0,0,0,0,0,0,0,0,0,0,0,0,0,0,0,0,0,0,0,0,0,0,0,0,0,0,0,0,0,0.6115,0.6117,0,0.6335,0.6338,0.634,0.6432,0.6432,0.6431,0.6431,0.6673,0.668,0.6687,0,0,0,0,0,0,0,0,0,0,0,0,0,0.5792,0.5798,0.6115,0.6117,0.612,0.6335,0.6338,0.6341,0.6432,0.6432,0.6431,0.6431,0.6671,0.6679,0.6687,0,0,0,0,0,0,0,0,0,0,0,0,0,0.5965,0.5799,0.6114,0.6191,0.62,0.6334,0.6338,0.6342,0.6433,0.6432,0.6431,0.643,0.6668,0.6678,0.6689,0.6767,0,0,0.672,0.6725,0,0,0,0,0,0,0,0,0.5955,0.5977,0.6177,0.6186,0.6196,0.6355,0.6313,0.6485,0.6433,0.6345,0.6431,0.643,0.6569,0.6588,0.6631,0.6779,0.6789,0.6721,0.6727,0.6732,0.6735,0,0,0,0,0,0,0,0.5943,0.5968,0.6202,0.618,0.6192,0.6221,0.6245,0.6346,0.6459,0.6353,0.636,0.6384,0.6575,0.6621,0.6638,0.6793,0.6721,0.673,0.6736,0.6741,0.7024,0.7026,0,0,0,0,0,0,0.5916,0.5957,0.6195,0.6209,0.6071,0.6228,0.6254,0.6305,0.6458,0.648,0.6384,0.6387,0.6604,0.6625,0.6646,0.6752,0.6732,0.6742,0.6747,0.7023,0.7025,0.7026,0,0,0,0,0,0,0.5908,0.5936,0.6187,0.6085,0.6119,0.6234,0.6291,0.631,0.6356,0.6482,0.6504,0.6409,0.6604,0.6632,0.6737,0.6762,0.6746,0.6756,0.7021,0.7024,0.7025,0.6962,0,0,0,0,0,0,0.5899,0.5933,0.5958,0.6085,0.6124,0.6267,0.6292,0.6315,0.6372,0.6378,0.6511,0.6533,0.6605,0.6721,0.6747,0.6776,0.6764,0.702,0.7022,0.7025,0.6962,0.6962,0.6961,0,0,0,0,0,0.5887,0.5934,0.5959,0.5987,0.6158,0.6268,0.6291,0.6368,0.6373,0.6404,0.6486,0.6529,0.6755,0.6731,0.6761,0.6793,0.7019,0.7022,0.7025,0.6963,0.6962,0.6961,0,0,0,0,0,0,0.5812,0.5952,0.5981,0.6069,0.6155,0.6283,0.6323,0.6364,0.6455,0.6457,0.6556,0.6585,0.6683,0.675,0.672,0.6882,0.6891,0.69,0.6834,0.6834,0.6833,0.6815,0.6772,0,0,0,0,0,0.5805,0.5876,0.5998,0.6064,0.6105,0.6207,0.6258,0.631,0.6406,0.6444,0.6533,0.6629,0.6723,0.6783,0.6875,0.6974,0.7008,0.7012,0.7011,0.701,0.7016,0.708,0.7085,0.7036,0.7036,0.7036,0,0,0.5792,0.5878,0.5918,0.6051,0.6124,0.6203,0.6237,0.6317,0.6379,0.6458,0.6561,0.6632,0.6747,0.6849,0.69,0.6908,0.7038,0.7013,0.7011,0.7019,0.7084,0.7088,0.7092,0.7038,0.7038,0.7037,0,0,0.5809,0.5879,0.5944,0.6016,0.6125,0.6193,0.6209,0.6332,0.638,0.6484,0.6547,0.6626,0.6783,0.6864,0.6925,0.698,0.7025,0.7008,0.7004,0.7065,0.7069,0.7073,0.7096,0.7103,0.7015,0.7015,0.7015,0,0.5781,0.5895,0.5973,0.6051,0.6111,0.6183,0.6254,0.6323,0.6459,0.6502,0.6508,0.671,0.6793,0.6918,0.6932,0.6978,0.7005,0.6992,0.7061,0.7066,0.7071,0.7094,0.7102,0.7012,0.7012,0.7013,0.7013,0,0.5858,0.5937,0.5978,0.6102,0.6168,0.6241,0.6337,0.6396,0.6445,0.6515,0.6626,0.6727,0.6844,0.6878,0.6928,0.7014,0.7016,0.704,0.7052,0.7071,0.7095,0.7105,0.7008,0.7009,0.701,0.7011,0,0,0.583,0.5999,0.6013,0.6072,0.6201,0.6267,0.6349,0.6458,0.6508,0.6603,0.6677,0.6812,0.6836,0.6906,0.6968,0.702,0.7063,0.704,0.7044,0.7043,0.717,0.7151,0.7159,0.7094,0.7096,0.7098,0.7161,0,0.5865,0.6005,0.6081,0.6194,0.6272,0.6345,0.6418,0.6508,0.6578,0.666,0.674,0.6834,0.6858,0.6901,0.6957,0.7045,0.709,0.7042,0.7171,0.7175,0.7139,0.7171,0.715,0.7205,0.7171,0.7173,0.7174,0,0.5924,0.6012,0.613,0.6254,0.629,0.6352,0.6462,0.6538,0.6646,0.6694,0.6774,0.6835,0.6932,0.6937,0.7076,0.7042,0.7101,0.7153,0.7158,0.7173,0.7175,0.719,0.7223,0.7232,0.7189,0.7188,0.7186,0,0.5894,0.6044,0.6135,0.6184,0.633,0.6373,0.6437,0.6544,0.6607,0.6707,0.675,0.6861,0.6923,0.7011,0.7104,0.7098,0.7237,0.7248,0.7284,0.7282,0.7309,0.7306,0.7354,0.7345,0.7345,0.7345,0.7345,0,0.5926,0.5996,0.6124,0.6179,0.6264,0.6355,0.6438,0.6509,0.6605,0.6682,0.6756,0.6828,0.6945,0.7035,0.711,0.7217,0.7244,0.729,0.7309,0.7284,0.7278,0.7323,0.7322,0.7347,0.7347,0.7346,0.7346,0,0.5906,0.5993,0.6098,0.6228,0.6263,0.6319,0.6435,0.6497,0.6572,0.6669,0.6698,0.6818,0.6928,0.7029,0.7177,0.7227,0.7337,0.7361,0.7298,0.7308,0.734,0.7336,0.7419,0.7437,0.7414,0.7414,0.7414,0,0.5919,0.5975,0.6111,0.6165,0.6227,0.6313,0.6378,0.6473,0.6539,0.667,0.6718,0.6832,0.6928,0.7103,0.7208,0.7324,0.7352,0.7374,0.737,0.7344,0.7356,0.7351,0.736,0.7372,0.7372,0.7371,0.7371,0,0.5936,0.5978,0.6064,0.6168,0.6242,0.633,0.6421,0.6463,0.6578,0.6649,0.676,0.6834,0.6985,0.7101,0.7229,0.7305,0.736,0.7372,0.7387,0.7361,0.7323,0.7347,0.7296,0.7369,0.7369,0.7369,0.737,0.737,0.5936,0.599,0.6094,0.6191,0.6269,0.6353,0.6418,0.6501,0.6593,0.6719,0.6773,0.6886,0.7003,0.718,0.7255,0.7352,0.7363,0.7384,0.739,0.7394,0.739,0.7307,0.7376,0.7376,0.7376,0.7376,0.7377,0,0.5958,0.603,0.6117,0.624,0.6318,0.6358,0.6463,0.6528,0.6624,0.6725,0.6818,0.695,0.7064,0.7179,0.7302,0.7357,0.7387,0.7387,0.7384,0.7402,0.7371,0.7346,0.7361,0.7361,0.7361,0.7361,0.7361,0.7361,0.5978,0.6073,0.6129,0.6267,0.6341,0.6448,0.6505,0.6587,0.6667,0.6809,0.6902,0.6974,0.7085,0.7216,0.7326,0.7358,0.7401,0.7395,0.7434,0.7403,0.7403,0.7403,0.7381,0.7403,0.7403,0.7457,0.7458,0.7458]}]]